Lid_Strength_Index
1 1 2 2 2 2 2 2 2 3 3 3 3 3 3 3 3 3 3 3 3 3 3 3 2 1 1 3 3 0 -3 -1 1 2 2 2 3 3 5 4 4 5 4 4 4 4 4
2 2 2 2 2 2 2 2 2 3 3 3 3 3 3 3 3 3 3 3 4 4 3 2 1 1 2 5 1 -0 2 1 0 1 1 2 3 2 4 4 5 4 4 4 4 4 4
1 2 2 2 2 2 2 2 2 3 3 3 3 3 3 3 3 3 3 4 4 4 3 2 1 1 3 4 1 -1 1 2 0 1 2 1 1 3 3 4 3 4 5 4 4 4 5
1 2 1 2 2 2 2 2 2 2 3 3 3 3 3 3 3 3 4 4 4 3 3 2 1 1 4 2 1 1 1 2 1 0 1 1 1 2 3 3 4 5 5 8 5 5 4
1 1 1 2 2 2 2 2 2 2 2 2 3 3 3 3 3 3 4 4 3 2 2 1 1 2 5 3 3 0 -0 3 1 1 1 1 1 3 3 5 6 6 9 7 6 4 5
0 1 1 1 1 1 2 2 2 2 2 2 3 3 3 3 3 4 4 4 3 2 1 1 2 4 4 5 3 1 -0 1 2 2 2 3 3 5 5 6 10 8 8 7 7 5 5
0 0 1 1 1 1 1 2 2 2 2 2 3 3 4 4 4 4 4 2 3 3 3 4 5 5 5 2 1 1 0 1 2 3 5 4 6 7 6 5 6 6 7 7 6 5 6
0 1 2 2 2 2 2 2 2 3 3 3 3 3 4 4 4 4 4 3 4 3 5 4 4 5 4 3 4 2 0 3 4 6 4 5 7 5 5 5 6 6 7 7 6 5 5
-0 1 1 1 2 2 2 2 2 3 3 3 3 3 4 4 4 4 3 3 2 2 5 4 4 5 5 3 4 3 2 3 4 5 5 7 6 5 5 6 6 6 7 7 7 6 5
0 1 1 1 1 2 2 2 2 3 3 3 3 3 4 4 4 1 3 2 1 1 7 6 5 5 4 4 5 2 1 3 4 6 5 6 4 5 6 6 6 8 6 6 7 7 10
1 1 1 1 2 2 2 2 3 3 3 3 3 3 4 4 2 2 1 0 1 1 11 5 5 3 4 5 4 4 1 3 5 5 5 7 6 6 6 6 5 7 5 6 6 7 7
1 1 2 2 2 2 2 2 3 3 3 3 3 3 4 2 1 0 0 -0 1 7 11 7 5 5 6 5 4 3 3 2 3 5 5 5 4 5 5 5 5 5 6 6 6 7 10
1 2 2 2 2 2 2 3 3 3 3 3 4 4 4 1 1 -0 -0 2 7 10 6 7 7 6 6 6 5 5 5 5 6 8 8 6 6 5 4 6 5 5 7 10 11 11 11
1 2 2 3 2 2 2 3 3 3 3 4 5 5 2 1 -1 -0 1 5 10 7 7 5 6 6 7 6 5 5 6 7 5 6 7 8 10 6 5 5 7 6 7 10 14 12 10
1 2 2 2 2 3 3 3 3 3 3 4 5 -0 0 -0 -1 -0 4 8 8 7 6 6 6 7 7 6 6 6 6 6 5 5 8 8 9 5 5 4 5 7 8 6 8 8 9
1 2 2 2 3 3 3 3 3 3 3 4 2 1 1 -1 -1 1 5 8 6 5 5 5 7 6 8 7 7 7 7 5 6 5 4 6 9 6 5 5 5 6 5 8 8 11 12
1 2 3 3 3 4 4 3 3 3 4 4 2 4 1 -1 -0 3 7 6 5 4 4 6 6 7 7 7 6 7 7 5 5 5 4 5 6 7 6 6 7 6 7 7 7 8 10
3 3 3 4 3 4 4 4 3 3 5 3 2 6 1 -0 5 4 6 5 6 5 4 5 5 6 6 6 7 7 7 6 4 4 6 5 6 8 7 5 5 6 6 7 9 10 12
3 4 3 4 4 4 4 4 4 4 4 3 4 3 1 1 7 6 5 5 4 5 5 5 6 5 5 6 7 6 6 4 4 5 5 5 7 9 9 7 5 6 6 6 7 7 13
4 4 4 4 4 4 4 4 4 4 4 3 4 6 4 3 3 5 6 6 6 4 5 4 5 4 5 6 5 6 6 5 4 4 4 5 6 8 11 9 7 8 7 6 7 9 9
4 4 5 5 4 4 3 4 4 4 4 3 3 5 3 6 5 5 5 5 6 6 4 4 5 5 6 7 6 6 5 5 4 5 4 5 7 7 7 7 7 9 7 7 7 7 9
4 5 5 5 4 3 3 4 3 4 4 2 5 5 4 4 4 5 6 6 6 6 5 6 6 5 5 6 6 7 5 5 6 4 5 4 7 6 7 6 6 7 7 7 7 7 7
4 5 5 5 4 3 3 3 4 4 4 2 2 2 4 6 5 5 5 5 6 5 4 4 5 5 5 5 4 4 4 4 4 5 5 6 6 7 9 7 7 9 7 7 7 6 7
4 5 5 5 4 3 3 3 3 4 4 2 1 2 5 7 5 5 5 5 5 5 6 5 4 5 4 2 3 3 3 4 4 4 4 6 6 7 8 8 11 7 5 6 6 6 5
4 4 5 5 5 4 3 3 3 3 3 2 1 2 5 8 5 6 6 6 5 5 5 5 4 3 2 3 6 6 6 6 6 5 5 5 6 8 11 13 9 8 6 6 7 7 5
4 4 4 5 5 4 4 3 4 4 4 2 0 -0 3 6 6 5 6 5 6 6 5 5 3 2 3 5 6 8 9 7 8 7 4 5 5 7 8 11 13 8 5 4 5 9 5
4 4 4 4 5 5 5 4 4 4 4 3 1 -1 2 6 4 4 6 6 4 5 6 5 5 4 3 6 7 8 8 6 9 9 8 7 7 8 9 9 9 6 5 4 9 9 5
3 3 4 4 4 5 5 5 4 4 4 4 1 -1 2 4 4 3 3 4 4 4 7 5 5 5 5 7 8 7 7 6 7 6 7 8 9 9 9 15 13 4 5 7 6 4 4
4 3 3 4 4 4 5 5 5 5 5 4 2 -0 0 3 3 2 2 2 2 2 4 4 5 6 5 7 8 8 10 6 7 10 6 8 7 9 10 9 5 4 4 4 3 4 4